Rockport, TX

5:03 PM CDT on April 26, 2017 (GMT -0500)
Aransas County

Weather History for KRKP - October, 2013

Change the Weather History Date:

Tuesday, October 15, 2013

  Actual Average Record
Temperature  
Mean Temperature 82 °F -  
Max Temperature 87 °F 82 °F 91 °F (1985)
Min Temperature 78 °F 65 °F 48 °F (1974)
Cooling Degree Days 17    
Growing Degree Days 32 (Base 50)    
Moisture  
Dew Point 72 °F    
Average Humidity 73    
Maximum Humidity 82    
Minimum Humidity 59    
Precipitation  
Precipitation 0.00 in - - ()
Sea Level Pressure  
Sea Level Pressure 29.93 in    
Wind  
Wind Speed 9 mph (SSE)    
Max Wind Speed 14 mph    
Max Gust Speed 20 mph    
Visibility 10 miles    
Events      
Averages and records for this station are not official NWS values.
T = Trace of Precipitation, MM = Missing Value Source: NWS Daily Summary

Daily Weather History Graph

Daily Weather History Graph

Search for Another Location

Airport or City:

Trip Planner

Search our weather history database for the weather conditions in past years. The results will help you decide how hot, cold, wet, or windy it might be!

Date:

Astronomy

Oct. 15, 2013 Rise Set
Actual Time 7:28 AM CDT 6:58 PM CDT
Civil Twilight 7:05 AM CDT 7:22 PM CDT
Nautical Twilight 6:37 AM CDT 7:49 PM CDT
Astronomical Twilight 6:10 AM CDT 8:16 PM CDT
Moon 4:51 PM CDT (10/15) 4:09 AM CDT (10/15)
Length of Visible Light 12h 17m
Length of Day
11h 29m
Waxing Gibbous, 88% of the Moon is Illuminated
Oct 15
Waxing Gibbous
Oct 18
Full
Oct 26
Last Quarter
Nov 3
New
Nov 9
First Quarter

Hourly Weather History & Observations

Time (CDT) Temp. Heat Index Dew Point Humidity Pressure Visibility Wind Dir Wind Speed Gust Speed Precip Events Conditions
12:33 AM 80.6 °F 85.4 °F 73.4 °F 79% 29.96 in 10.0 mi SSE 10.4 mph - N/A   Mostly Cloudy
12:53 AM 80.1 °F 84.2 °F 73.0 °F 79% 29.96 in 10.0 mi SSE 9.2 mph - N/A   Scattered Clouds
1:53 AM 80.1 °F 83.8 °F 72.0 °F 76% 29.96 in 10.0 mi SSE 8.1 mph - N/A   Clear
2:53 AM 79.0 °F - 73.0 °F 82% 29.96 in 10.0 mi SSE 6.9 mph - N/A   Clear
3:53 AM 78.1 °F - 72.0 °F 81% 29.95 in 10.0 mi South 3.5 mph - N/A   Clear
4:53 AM 79.0 °F - 73.0 °F 82% 29.93 in 10.0 mi SSE 8.1 mph - N/A   Scattered Clouds
5:53 AM 80.1 °F 83.8 °F 72.0 °F 76% 29.94 in 10.0 mi SSE 6.9 mph - N/A   Scattered Clouds
6:53 AM 79.0 °F - 72.0 °F 79% 29.93 in 10.0 mi SSE 6.9 mph - N/A   Partly Cloudy
7:53 AM 79.0 °F - 71.1 °F 77% 29.95 in 10.0 mi SSE 8.1 mph - N/A   Clear
8:53 AM 81.0 °F 85.2 °F 72.0 °F 74% 29.97 in 10.0 mi South 8.1 mph - N/A   Partly Cloudy
9:53 AM 82.9 °F 88.0 °F 72.0 °F 69% 29.97 in 10.0 mi SSE 9.2 mph - N/A   Partly Cloudy
10:53 AM 84.9 °F 90.7 °F 72.0 °F 65% 29.96 in 10.0 mi SSE 8.1 mph 18.4 mph N/A   Partly Cloudy
11:53 AM 86.0 °F 91.5 °F 71.1 °F 61% 29.96 in 10.0 mi SE 13.8 mph 19.6 mph N/A   Clear
12:53 PM 84.9 °F 90.1 °F 71.1 °F 63% 29.95 in 10.0 mi SSE 10.4 mph - N/A   Clear
1:53 PM 86.0 °F 90.7 °F 70.0 °F 59% 29.92 in 10.0 mi SSE 10.4 mph 17.3 mph N/A   Clear
2:53 PM 86.0 °F 92.2 °F 72.0 °F 63% 29.89 in 10.0 mi SSE 10.4 mph - N/A   Clear
3:53 PM 84.9 °F 90.7 °F 72.0 °F 65% 29.88 in 10.0 mi SE 13.8 mph - N/A   Partly Cloudy
4:53 PM 84.0 °F 88.4 °F 70.0 °F 63% 29.87 in 10.0 mi SE 11.5 mph - N/A   Clear
5:53 PM 82.9 °F 87.5 °F 71.1 °F 67% 29.88 in 10.0 mi SE 9.2 mph - N/A   Clear
6:53 PM 80.1 °F 83.6 °F 71.1 °F 74% 29.88 in 10.0 mi SE 11.5 mph - N/A   Clear
7:53 PM 80.1 °F 83.8 °F 72.0 °F 76% 29.88 in 10.0 mi SE 11.5 mph - N/A   Clear
8:53 PM 80.1 °F 83.8 °F 72.0 °F 76% 29.90 in 10.0 mi SE 11.5 mph - N/A   Clear
9:53 PM 79.0 °F - 72.0 °F 79% 29.91 in 10.0 mi SE 12.7 mph - N/A   Clear
10:53 PM 80.1 °F 83.8 °F 72.0 °F 76% 29.93 in 10.0 mi SE 11.5 mph - N/A   Partly Cloudy
11:53 PM 79.0 °F - 72.0 °F 79% 29.93 in 10.0 mi SSE 6.9 mph - N/A   Partly Cloudy